EW0608 Weather Reports


time (UTC)temp
C
wind
direction
speed
KPH
gust
KPH
rain 1hr
cm
rain 24hr
cm
rain mn
cm
humidity
%
barometer
mb
20260902184900 26 80 1.6 8.0 0.00 0.00 0.00 88 1017.6
20260902184613 25 13 1.6 8.0 0.00 0.00 0.00 88 1016.3
20260902184351 26 74 1.6 4.8 0.00 0.00 0.00 89 1017.9
20260902183845 25 314 0.0 4.8 0.00 0.00 0.00 89 1017.7
20260902183337 25 360 0.0 3.2 0.00 0.00 0.00 92 1017.6
20260902183102 25 360 0.0 3.2 0.00 0.00 0.00 91 1016.2
20260902182850 25 360 1.6 3.2 0.00 0.00 0.00 92 1017.6
20260902182341 25 360 0.0 1.6 0.00 0.00 0.00 92 1017.5
20260902181914 25 360 0.0 4.8 0.00 0.00 0.00 91 1017.6
20260902181546 25 360 0.0 4.8 0.00 0.00 0.00 92 1016.0
20260902181345 25 360 1.6 4.8 0.00 0.00 0.00 91 1017.5
20260902180838 25 46 3.2 4.8 0.00 0.00 0.00 91 1017.7
20260902180349 25 215 3.2 4.8 0.00 0.00 0.00 89 1018.0
20260902180043 25 338 1.6 9.7 0.00 0.00 0.00 87 1016.7
20260902175839 26 338 3.2 11.3 0.00 0.00 0.00 87 1018.1
20260902175411 27 339 4.8 11.3 0.00 0.00 0.00 81 1017.5
20260902174843 30 236 1.6 8.0 0.00 0.00 0.00 73 1017.3
20260902174515 31 15 1.6 8.0 0.00 0.00 0.00 72 1015.5
20260902174414 32 85 4.8 8.0 0.00 0.00 0.00 72 1017.0
20260902173846 32 129 1.6 6.4 0.00 0.00 0.00 66 1016.9
20260902173400 32 236 1.6 6.4 0.00 0.00 0.00 64 1016.9
20260902173051 31 225 3.2 6.4 0.00 0.00 0.00 65 1015.4
20260902172851 31 208 1.6 3.2 0.00 0.00 0.00 69 1017.0
20260902172405 31 208 0.0 3.2 0.00 0.00 0.00 67 1017.2
20260902171855 31 208 0.0 3.2 0.00 0.00 0.00 72 1017.3
20260902171549 31 208 0.0 1.6 0.00 0.00 0.00 69 1016.0
20260902171349 31 208 0.0 3.2 0.00 0.00 0.00 71 1017.4
20260902170840 31 208 0.0 6.4 0.00 0.00 0.00 66 1017.5
20260902170340 31 215 1.6 6.4 0.00 0.00 0.00 62 1017.6
20260902170052 31 223 0.0 4.8 0.00 0.00 0.00 64 1016.1
20260902165848 31 161 1.6 4.8 0.00 0.00 0.00 63 1017.6
20260902165341 32 111 1.6 4.8 0.00 0.00 0.00 64 1017.6
20260902164914 32 84 1.6 8.0 0.00 0.00 0.00 62 1017.7
20260902164509 32 232 1.6 8.0 0.00 0.00 0.00 59 1016.4
20260902164406 32 210 3.2 8.0 0.00 0.00 0.00 61 1017.9
20260902163837 32 237 1.6 6.4 0.00 0.00 0.00 62 1017.7
20260902163410 32 78 3.2 4.8 0.00 0.00 0.00 64 1017.8
20260902163001 32 202 1.6 6.4 0.00 0.00 0.00 63 1016.4
20260902162900 32 206 3.2 6.4 0.00 0.00 0.00 62 1018.0
20260902162352 32 194 1.6 4.8 0.00 0.00 0.00 62 1018.0
20260902161845 32 194 1.6 4.8 0.00 0.00 0.00 63 1018.0
20260902161538 31 185 1.6 4.8 0.00 0.00 0.00 63 1016.6
20260902161337 32 240 1.6 4.8 0.00 0.00 0.00 65 1018.1
20260902160850 31 118 1.6 4.8 0.00 0.00 0.00 67 1018.1
20260902160343 31 49 3.2 8.0 0.00 0.00 0.00 67 1018.2
20260902160054 31 46 1.6 8.0 0.00 0.00 0.00 66 1016.7
20260902155853 31 214 1.6 8.0 0.00 0.00 0.00 66 1018.2
20260902155347 31 44 3.2 6.4 0.00 0.00 0.00 69 1018.0
20260902154838 30 355 3.2 8.0 0.00 0.00 0.00 73 1018.0
20260902154551 30 101 3.2 8.0 0.00 0.00 0.00 72 1016.5
20260902154350 30 214 1.6 0.0 0.00 0.00 0.00 74 1017.6
20260902153842 30 177 0.0 3.2 0.00 0.00 0.00 75 1018.0
20260902153354 29 175 0.0 0.0 0.00 0.00 0.00 82 1017.9
20260902153007 28 175 0.0 0.0 0.00 0.00 0.00 83 1016.5
20260902152907 29 175 0.0 0.0 0.00 0.00 0.00 82 1018.0
20260902152339 28 175 0.0 0.0 0.00 0.00 0.00 88 1018.0
20260902151851 27 175 0.0 0.0 0.00 0.00 0.00 89 1018.1
20260902151551 27 175 0.0 0.0 0.00 0.00 0.00 89 1016.7
20260902151344 27 175 0.0 0.0 0.00 0.00 0.00 89 1018.2
20260902150837 27 175 0.0 0.0 0.00 0.00 0.00 88 1018.1
20260902150430 27 175 0.0 0.0 0.00 0.00 0.00 87 1018.1
20260902150057 27 175 0.0 0.0 0.00 0.00 0.00 87 1016.7
20260902145855 27 175 0.0 0.0 0.00 0.00 0.00 88 1018.1
20260902145347 27 175 0.0 0.0 0.00 0.00 0.00 87 1018.0
20260902144840 27 175 0.0 0.0 0.00 0.00 0.00 87 1018.0
20260902144553 26 175 0.0 0.0 0.00 0.00 0.00 88 1016.6
20260902144353 26 175 0.0 0.0 0.00 0.00 0.00 88 1018.0
20260902143846 26 175 0.0 0.0 0.00 0.00 0.00 88 1018.0
20260902143338 26 175 0.0 0.0 0.00 0.00 0.00 88 1018.0
20260902143056 26 175 0.0 0.0 0.00 0.00 0.00 87 1016.5
20260902142851 26 175 0.0 0.0 0.00 0.00 0.00 88 1018.0
20260902142343 25 175 0.0 0.0 0.00 0.00 0.00 90 1018.0
20260902141842 25 175 0.0 0.0 0.00 0.00 0.00 91 1018.0
20260902141539 24 175 0.0 0.0 0.00 0.00 0.00 91 1016.7
20260902141336 25 175 0.0 0.0 0.00 0.00 0.00 92 1018.1
20260902140848 24 175 0.0 0.0 0.00 0.00 0.00 93 1018.2
20260902140342 23 175 0.0 0.0 0.00 0.00 0.00 94 1018.2
20260902140051 23 175 0.0 0.0 0.00 0.00 0.00 94 1016.7
20260902135850 23 175 0.0 0.0 0.00 0.00 0.00 94 1018.1
20260902135343 23 175 0.0 0.0 0.00 0.00 0.00 94 1018.2
20260902134836 23 175 0.0 0.0 0.00 0.00 0.00 94 1018.1
20260902134602 22 175 0.0 0.0 0.00 0.00 0.00 94 1016.7
20260902134348 23 175 0.0 0.0 0.00 0.00 0.00 94 1018.2
20260902133840 23 175 0.0 0.0 0.00 0.00 0.00 95 1018.3
20260902133352 23 175 0.0 0.0 0.00 0.00 0.00 95 1018.3
20260902133049 22 175 0.0 0.0 0.00 0.00 0.00 95 1016.9
20260902132846 22 175 0.0 0.0 0.00 0.00 0.00 95 1018.4
20260902132339 22 175 0.0 0.0 0.00 0.00 0.00 95 1018.4
20260902131851 21 175 0.0 0.0 0.00 0.00 0.00 95 1018.3
20260902131549 21 175 0.0 0.0 0.00 0.00 0.00 95 1016.9
20260902131344 21 175 0.0 0.0 0.00 0.00 0.00 95 1018.3
20260902130837 21 175 0.0 0.0 0.00 0.00 0.00 95 1018.3
20260902130410 21 175 0.0 0.0 0.00 0.00 0.00 95 1018.3
20260902130040 21 175 0.0 0.0 0.00 0.00 0.00 95 1016.9
20260902125840 21 175 0.0 0.0 0.00 0.00 0.00 95 1018.4
20260902125352 21 175 0.0 0.0 0.00 0.00 0.00 95 1018.4
20260902124846 21 175 0.0 0.0 0.00 0.00 0.00 95 1018.5
20260902124538 21 175 0.0 0.0 0.00 0.00 0.00 95 1017.1
20260902124338 21 175 0.0 0.0 0.00 0.00 0.00 95 1018.5
20260902123910 21 175 0.0 0.0 0.00 0.00 0.00 95 1018.3
20260902123340 21 175 0.0 0.0 0.00 0.00 0.00 95 1018.2
20260902123054 20 175 0.0 0.0 0.00 0.00 0.00 95 1016.8
20260902122854 21 175 0.0 0.0 0.00 0.00 0.00 95 1018.2
20260902122345 21 175 0.0 0.0 0.00 0.00 0.00 95 1018.1
20260902121842 21 175 0.0 0.0 0.00 0.00 0.00 95 1018.1
20260902121602 20 175 0.0 0.0 0.00 0.00 0.00 95 1016.7
20260902121354 21 175 0.0 0.0 0.00 0.00 0.00 95 1018.1
20260902120847 21 175 0.0 0.0 0.00 0.00 0.00 95 1018.1
20260902120341 21 175 0.0 0.0 0.00 0.00 0.00 95 1018.1
20260902120011 20 175 0.0 0.0 0.00 0.00 0.00 95 1016.8
20260902115910 21 175 0.0 0.0 0.00 0.00 0.00 95 1018.2
20260902115341 20 175 0.0 0.0 0.00 0.00 0.00 94 1018.2
20260902114854 20 175 0.0 0.0 0.00 0.00 0.00 94 1018.2
20260902114556 20 175 0.0 0.0 0.00 0.00 0.00 95 1016.8
20260902114348 20 175 0.0 0.0 0.00 0.00 0.00 95 1018.1
20260902113017 20 175 0.0 0.0 0.00 0.00 0.00 94 1016.7
20260902111516 20 175 0.0 0.0 0.00 0.00 0.00 94 1016.7
20260902110012 20 175 0.0 0.0 0.00 0.00 0.00 94 1016.6
20260902104516 20 175 0.0 0.0 0.00 0.00 0.00 94 1016.6
20260902103011 20 175 0.0 0.0 0.00 0.00 0.00 94 1016.7
20260902101513 20 175 0.0 0.0 0.00 0.00 0.00 94 1016.7
20260902100009 21 175 0.0 0.0 0.00 0.00 0.00 94 1016.7
20260902094509 21 175 0.0 0.0 0.00 0.00 0.00 94 1016.6
20260902093006 21 175 0.0 0.0 0.00 0.00 0.00 94 1016.5
20260902091512 21 175 0.0 0.0 0.00 0.00 0.00 94 1016.5
20260902090005 21 175 0.0 0.0 0.00 0.00 0.00 94 1016.6
20260902084504 21 175 0.0 0.0 0.00 0.00 0.00 94 1016.7
20260902083002 21 175 0.0 0.0 0.00 0.00 0.00 93 1016.7
20260902081501 21 175 0.0 0.0 0.00 0.00 0.00 93 1016.5
20260902080114 21 175 0.0 0.0 0.00 0.00 0.00 93 1016.2
20260902074611 21 175 0.0 0.0 0.00 0.00 0.00 93 1016.2
20260902073110 21 175 0.0 4.8 0.00 0.00 0.00 93 1016.0
20260902071614 21 175 0.0 0.0 0.00 0.00 0.00 93 1016.4
20260902070058 21 175 0.0 0.0 0.00 0.00 0.00 93 1016.0
20260902064600 21 175 0.0 0.0 0.00 0.00 0.00 93 1016.0
20260902063059 21 175 0.0 0.0 0.00 0.00 0.00 93 1016.3
20260902061608 21 175 0.0 0.0 0.00 0.00 0.00 93 1016.3
20260902060055 21 175 0.0 0.0 0.00 0.00 0.00 93 1016.5
20260902054555 21 175 0.0 0.0 0.00 0.00 0.00 93 1016.5
20260902053055 21 175 0.0 0.0 0.00 0.00 0.00 93 1016.5
20260902051853 21 175 0.0 0.0 0.00 0.00 0.00 93 1017.9
20260902051508 21 175 0.0 0.0 0.00 0.00 0.00 93 1016.5
20260902051406 21 175 0.0 0.0 0.00 0.00 0.00 93 1017.8
20260902050857 21 175 0.0 0.0 0.00 0.00 0.00 93 1017.8
20260902050351 21 175 0.0 0.0 0.00 0.00 0.00 93 1017.8
20260902050046 21 175 0.0 0.0 0.00 0.00 0.00 93 1016.4
20260902045840 21 175 0.0 0.0 0.00 0.00 0.00 93 1017.7
20260902045353 21 175 0.0 0.0 0.00 0.00 0.00 93 1017.7
20260902044845 21 175 0.0 0.0 0.00 0.00 0.00 93 1017.7
20260902044559 21 175 0.0 0.0 0.00 0.00 0.00 93 1016.3
20260902044359 21 175 0.0 0.0 0.00 0.00 0.00 93 1017.6
20260902043852 21 175 0.0 0.0 0.00 0.00 0.00 93 1017.5
20260902043403 21 175 0.0 0.0 0.00 0.00 0.00 93 1017.4
20260902043037 21 175 0.0 0.0 0.00 0.00 0.00 93 1016.0
20260902042837 21 175 0.0 0.0 0.00 0.00 0.00 93 1017.3
20260902042409 21 175 0.0 0.0 0.00 0.00 0.00 93 1017.3
20260902041839 21 175 0.0 0.0 0.00 0.00 0.00 93 1017.2
20260902041514 21 175 0.0 0.0 0.00 0.00 0.00 93 1015.7
20260902041350 22 175 0.0 0.0 0.00 0.00 0.00 93 1017.0
20260902040841 22 175 0.0 0.0 0.00 0.00 0.00 93 1017.0
20260902040355 22 175 0.0 0.0 0.00 0.00 0.00 93 1016.9
20260902040045 21 175 0.0 0.0 0.00 0.00 0.00 93 1015.4
20260902035844 22 175 0.0 0.0 0.00 0.00 0.00 93 1016.9
20260902035337 22 175 0.0 0.0 0.00 0.00 0.00 93 1016.8
20260902034849 22 175 0.0 0.0 0.00 0.00 0.00 93 1016.6
20260902034547 21 175 0.0 0.0 0.00 0.00 0.00 93 1015.3
20260902034347 22 175 0.0 0.0 0.00 0.00 0.00 93 1016.6
20260902033841 22 175 0.0 0.0 0.00 0.00 0.00 93 1016.6
20260902033355 22 175 0.0 0.0 0.00 0.00 0.00 93 1016.6
20260902033049 21 175 0.0 0.0 0.00 0.00 0.00 93 1015.1
20260902032849 22 175 0.0 0.0 0.00 0.00 0.00 93 1016.6
20260902032341 21 175 0.0 0.0 0.00 0.00 0.00 93 1016.6
20260902031851 21 175 0.0 0.0 0.00 0.00 0.00 93 1016.5
20260902031544 21 175 0.0 0.0 0.00 0.00 0.00 93 1015.0
20260902031343 21 175 0.0 0.0 0.00 0.00 0.00 93 1016.5
20260902030836 22 175 0.0 0.0 0.00 0.00 0.00 93 1016.5
20260902030429 22 175 0.0 0.0 0.00 0.00 0.00 93 1016.5
20260902030056 22 175 0.0 0.0 0.00 0.00 0.00 93 1015.1
20260902025856 22 175 0.0 0.0 0.00 0.00 0.00 93 1016.4
20260902025347 22 175 0.0 0.0 0.00 0.00 0.00 93 1016.3
20260902024840 22 175 0.0 0.0 0.00 0.00 0.00 92 1016.2
20260902024555 22 175 0.0 0.0 0.00 0.00 0.00 92 1014.9
20260902024354 22 175 0.0 0.0 0.00 0.00 0.00 92 1016.3
20260902023846 22 175 0.0 0.0 0.00 0.00 0.00 92 1016.4
20260902023339 22 175 0.0 0.0 0.00 0.00 0.00 92 1016.5
20260902023053 22 175 0.0 0.0 0.00 0.00 0.00 92 1015.1
20260902022852 22 175 0.0 0.0 0.00 0.00 0.00 92 1016.4
20260902022345 22 175 0.0 0.0 0.00 0.00 0.00 92 1016.6
20260902021837 22 175 0.0 0.0 0.00 0.00 0.00 92 1016.8
20260902021556 22 175 0.0 0.0 0.00 0.00 0.00 92 1015.4
20260902021350 22 175 0.0 0.0 0.00 0.00 0.00 92 1016.8
20260902020843 23 175 0.0 0.0 0.00 0.00 0.00 91 1016.8
20260902020357 23 175 0.0 0.0 0.00 0.00 0.00 91 1016.8
20260902020047 22 175 0.0 0.0 0.00 0.00 0.00 91 1015.3
20260902015846 23 175 0.0 0.0 0.00 0.00 0.00 91 1016.7
20260902015359 23 175 0.0 0.0 0.00 0.00 0.00 91 1016.7
20260902014852 23 175 0.0 0.0 0.00 0.00 0.00 91 1016.6
20260902014549 23 175 0.0 0.0 0.00 0.00 0.00 91 1015.1
20260902014345 23 175 0.0 0.0 0.00 0.00 0.00 91 1016.6
20260902013841 23 175 0.0 0.0 0.00 0.00 0.00 91 1016.6
20260902013354 23 175 0.0 0.0 0.00 0.00 0.00 91 1016.6
20260902013009 23 175 0.0 0.0 0.00 0.00 0.00 90 1015.2
20260902012907 23 175 0.0 0.0 0.00 0.00 0.00 90 1016.6
20260902012339 23 175 0.0 0.0 0.00 0.00 0.00 90 1016.4
20260902011851 23 175 0.0 0.0 0.00 0.00 0.00 90 1016.4
20260902011550 23 175 0.0 0.0 0.00 0.00 0.00 90 1014.9
20260902011344 23 175 0.0 0.0 0.00 0.00 0.00 90 1016.3
20260902010837 24 175 0.0 0.0 0.00 0.00 0.00 89 1016.3
20260902010411 24 175 0.0 0.0 0.00 0.00 0.00 89 1016.2
20260902010107 23 175 0.0 0.0 0.00 0.00 0.00 89 1014.7
20260902005839 24 175 0.0 0.0 0.00 0.00 0.00 89 1016.1
20260902005353 24 175 0.0 0.0 0.00 0.00 0.00 88 1016.1
20260902004845 25 175 0.0 0.0 0.00 0.00 0.00 87 1015.9
20260902004539 24 175 0.0 0.0 0.00 0.00 0.00 86 1014.4
20260902004338 25 175 0.0 3.2 0.00 0.00 0.00 85 1015.8
20260902003930 25 175 0.0 3.2 0.00 0.00 0.00 85 1015.7
20260902003339 25 175 0.0 3.2 0.00 0.00 0.00 86 1015.9
20260902003052 25 175 0.0 3.2 0.00 0.00 0.00 86 1014.5
20260902002850 25 175 0.0 0.0 0.00 0.00 0.00 87 1015.9
20260902002344 25 175 0.0 0.0 0.00 0.00 0.00 87 1015.9
20260902001837 25 175 0.0 0.0 0.00 0.00 0.00 86 1015.7
20260902001510 25 175 0.0 0.0 0.00 0.00 0.00 85 1014.2
20260902001410 25 175 0.0 0.0 0.00 0.00 0.00 83 1015.6
20260902000842 26 175 0.0 0.0 0.00 0.00 0.00 82 1015.6
20260902000417 26 175 0.0 0.0 0.00 0.00 0.00 82 1015.6
20260902000049 25 175 0.0 0.0 0.00 0.00 0.00 83 1014.2
20260901235844 26 175 0.0 0.0 0.00 0.00 0.00 83 1015.6
20260901235337 26 175 0.0 0.0 0.00 0.00 0.00 83 1015.6
20260901234850 26 175 0.0 0.0 0.00 0.00 0.00 83 1015.5
20260901234542 26 175 0.0 0.0 0.00 0.00 0.00 83 1014.0
20260901234343 26 175 0.0 0.0 0.00 0.00 0.00 83 1015.4
20260901233915 26 175 0.0 0.0 0.00 0.00 0.00 83 1015.4
20260901233347 26 175 0.0 0.0 0.00 0.00 0.00 82 1015.4
20260901233049 26 175 0.0 0.0 0.00 0.00 0.00 82 1014.0
20260901232839 27 175 0.0 1.6 0.00 0.00 0.00 81 1015.4
20260901231842 27 175 0.0 1.6 0.00 0.00 0.00 77 1015.3
20260901231542 27 175 0.0 1.6 0.00 0.00 0.00 77 1013.9
20260901231335 27 175 0.0 0.0 0.00 0.00 0.00 78 1015.3
20260901230847 27 175 0.0 3.2 0.00 0.00 0.00 78 1015.3
20260901230342 28 175 0.0 4.8 0.00 0.00 0.00 74 1015.3
20260901230037 28 175 0.0 4.8 0.00 0.00 0.00 73 1013.9
20260901225835 28 175 1.6 4.8 0.00 0.00 0.00 72 1015.3
20260901225349 28 175 0.0 1.6 0.00 0.00 0.00 72 1015.4
20260901224841 28 175 0.0 1.6 0.00 0.00 0.00 72 1015.3
20260901224553 28 175 0.0 4.8 0.00 0.00 0.00 73 1013.9
20260901224352 29 175 0.0 6.4 0.00 0.00 0.00 72 1015.3
20260901223845 30 175 4.8 6.4 0.00 0.00 0.00 67 1015.2
20260901223338 30 173 1.6 4.8 0.00 0.00 0.00 67 1015.2
20260901223054 29 107 1.6 6.4 0.00 0.00 0.00 66 1013.7
20260901222851 30 107 0.0 6.4 0.00 0.00 0.00 67 1015.2
20260901222344 30 141 3.2 4.8 0.00 0.00 0.00 67 1015.2
20260901221857 30 111 1.6 4.8 0.00 0.00 0.00 68 1015.2
20260901221549 29 111 3.2 4.8 0.00 0.00 0.00 71 1013.7
20260901221348 29 50 1.6 4.8 0.00 0.00 0.00 75 1015.2
20260901220842 29 50 1.6 4.8 0.00 0.00 0.00 76 1015.3
20260901220351 28 50 0.0 3.2 0.00 0.00 0.00 77 1015.3
20260901220048 28 50 0.0 3.2 0.00 0.00 0.00 77 1013.9
20260901215847 29 133 1.6 3.2 0.00 0.00 0.00 76 1015.4
20260901215339 30 133 1.6 3.2 0.00 0.00 0.00 70 1015.4
20260901214912 30 221 1.6 4.8 0.00 0.00 0.00 72 1015.4
20260901214543 30 221 0.0 4.8 0.00 0.00 0.00 66 1014.0
20260901214343 30 221 1.6 4.8 0.00 0.00 0.00 65 1015.4
20260901213836 30 290 0.0 3.2 0.00 0.00 0.00 65 1015.3
20260901213348 30 159 0.0 3.2 0.00 0.00 0.00 66 1015.3
20260901213044 30 159 0.0 4.8 0.00 0.00 0.00 66 1013.8
20260901212840 31 159 1.6 8.0 0.00 0.00 0.00 66 1015.2
20260901212354 31 171 1.6 0.0 0.00 0.00 0.00 66 1014.8
20260901211845 31 215 1.6 4.8 0.00 0.00 0.00 64 1015.2
20260901211538 31 215 1.6 4.8 0.00 0.00 0.00 64 1013.6
20260901211338 31 142 0.0 4.8 0.00 0.00 0.00 64 1015.1
20260901210852 31 166 1.6 6.4 0.00 0.00 0.00 63 1015.0
20260901210344 31 200 3.2 4.8 0.00 0.00 0.00 64 1015.1
20260901210040 31 123 0.0 4.8 0.00 0.00 0.00 64 1013.7
20260901205836 31 123 1.6 4.8 0.00 0.00 0.00 64 1015.2
20260901205350 31 24 0.0 6.4 0.00 0.00 0.00 64 1015.2
20260901204839 31 136 1.6 6.4 0.00 0.00 0.00 64 1015.2
20260901204553 31 134 1.6 6.4 0.00 0.00 0.00 63 1013.7
20260901204352 31 224 3.2 9.7 0.00 0.00 0.00 62 1015.2
20260901203845 31 220 3.2 9.7 0.00 0.00 0.00 62 1015.3
20260901203337 31 119 3.2 11.3 0.00 0.00 0.00 62 1015.2
20260901203051 31 104 1.6 11.3 0.00 0.00 0.00 62 1013.8
20260901202851 31 109 3.2 11.3 0.00 0.00 0.00 61 1015.3
20260901202343 32 126 3.2 8.0 0.00 0.00 0.00 61 1015.3
20260901201836 32 198 3.2 9.7 0.00 0.00 0.00 60 1015.3
20260901201550 32 174 3.2 9.7 0.00 0.00 0.00 60 1013.9
20260901201350 32 166 4.8 9.7 0.00 0.00 0.00 60 1015.3
20260901200844 32 89 3.2 9.7 0.00 0.00 0.00 60 1015.3
20260901200358 32 153 4.8 9.7 0.00 0.00 0.00 58 1015.2
20260901195846 32 73 3.2 8.0 0.00 0.00 0.00 59 1015.2
20260901195400 33 39 4.8 8.0 0.00 0.00 0.00 57 1015.1
20260901194851 33 130 4.8 8.0 0.00 0.00 0.00 56 1015.1
20260901194557 33 88 3.2 8.0 0.00 0.00 0.00 57 1013.6
20260901194347 33 92 4.8 12.9 0.00 0.00 0.00 57 1015.0
20260901193840 33 41 3.2 12.9 0.00 0.00 0.00 55 1015.1
20260901193353 33 192 4.8 8.0 0.00 0.00 0.00 55 1015.2
20260901193051 33 135 3.2 6.4 0.00 0.00 0.00 55 1013.9
20260901192846 33 72 1.6 8.0 0.00 0.00 0.00 54 1015.3
20260901192437 34 84 4.8 9.7 0.00 0.00 0.00 54 1015.4
20260901191845 33 115 1.6 16.1 0.00 0.00 0.00 55 1015.4
20260901191541 34 42 4.8 16.1 0.00 0.00 0.00 52 1014.1
20260901191340 35 67 4.8 8.0 0.00 0.00 0.00 53 1015.3
20260901190853 33 116 3.2 9.7 0.00 0.00 0.00 53 1015.6
20260901190347 33 77 3.2 12.9 0.00 0.00 0.00 54 1015.6
20260901190043 33 153 4.8 12.9 0.00 0.00 0.00 53 1014.4
20260901185835 33 158 4.8 9.7 0.00 0.00 0.00 54 1015.9
20260901185349 34 41 3.2 11.3 0.00 0.00 0.00 51 1015.9